This is the latest recevied weather packets stored in our database for station/object DC1MAK-13. If no packets are shown the sender has not sent any weather packets the latest 10 day(s).
| Time | Temp. | Humidity | Pressure | Rain* | Wind** | Luminosity | Snow |
|---|---|---|---|---|---|---|---|
| 1788034907 | 16.67° C | 94% | 987.2 hPa | - | - | - | - |
| 1788034599 | 16.67° C | 94% | 987.3 hPa | - | - | - | - |
| 1788034296 | 16.67° C | 95% | 987.3 hPa | - | - | - | - |
| 1788033992 | 16.67° C | 95% | 987.3 hPa | - | - | - | - |
| 1788033387 | 17.22° C | 94% | 987.1 hPa | - | - | - | - |
| 1788033087 | 17.22° C | 92% | 987.2 hPa | - | - | - | - |
| 1788032778 | 17.22° C | 92% | 987.1 hPa | - | - | - | - |
| 1788032475 | 17.22° C | 92% | 987.1 hPa | - | - | - | - |
| 1788032172 | 16.67° C | 93% | 987.1 hPa | - | - | - | - |
| 1788031567 | 17.22° C | 88% | 987.1 hPa | - | - | - | - |
| 1788031267 | 17.78° C | 86% | 987.1 hPa | - | - | - | - |
| 1788030958 | 17.78° C | 85% | 987 hPa | - | - | - | - |
| 1788030654 | 18.33° C | 84% | 986.9 hPa | - | - | - | - |
| 1788030351 | 18.33° C | 84% | 986.8 hPa | - | - | - | - |
| 1788029747 | 18.33° C | 84% | 986.9 hPa | - | - | - | - |
| 1788029440 | 18.33° C | 84% | 986.9 hPa | - | - | - | - |
| 1788029137 | 18.33° C | 83% | 986.8 hPa | - | - | - | - |
| 1788028833 | 18.33° C | 82% | 986.7 hPa | - | - | - | - |
| 1788028530 | 18.33° C | 81% | 986.7 hPa | - | - | - | - |
| 1788027927 | 18.89° C | 79% | 986.6 hPa | - | - | - | - |
| 1788027620 | 19.44° C | 77% | 986.5 hPa | - | - | - | - |
| 1788027316 | 19.44° C | 77% | 986.4 hPa | - | - | - | - |
| 1788027013 | 19.44° C | 75% | 986.4 hPa | - | - | - | - |
| 1788026407 | 20° C | 73% | 986.4 hPa | - | - | - | - |
| 1788026107 | 20.56° C | 73% | 986.4 hPa | - | - | - | - |
* Rain since midnight (hover to see other rain measurements)
** Current wind speed in m/s (hover to see current wind gust speed)